Location: Little Italy
(37.8008°N, 122.4108°W)
Time: 20:53:03
(UTC+00:00)

COSMOS 2406 - Pass Details

Date: 29 October 2020
Orbit: 843 x 864 km, 71.0° (Epoch: 24 November)

Event Time Altitude Azimuth Distance (km) Brightness Sun altitude
Exits shadow 12:41:46 25° 330° (NNW) 1,631 4.4 -22.4°
Drops below altitude 10° 12:45:02 10° 1° (N) 2,470 5.6 -21.8°
Sets 12:47:49 0° 13° (NNE) 3,411 6.5 -21.2°
